Weather History for Houlton, ME

Change the Weather History Date:

Tuesday, February 5, 2013

  Actual Average Record
Temperature  
Mean Temperature 5 °F 12 °F  
Max Temperature 12 °F 24 °F 46 °F (1991)
Min Temperature -2 °F 1 °F -24 °F (1978)
Degree Days  
Heating Degree Days 60 53  
Month to date heating degree days 265 265  
Since 1 July heating degree days 5062 5440  
Cooling Degree Days 0 0  
Month to date cooling degree days 0 0  
Year to date cooling degree days 0 0  
Moisture  
Dew Point -12 °F    
Average Humidity 51    
Maximum Humidity 69    
Minimum Humidity 32    
Precipitation  
Precipitation 0.00 in 0.08 in 0.68 in (2006)
Month to date precipitation T 0.38  
Year to date precipitation 1.46 3.24  
Sea Level Pressure  
Sea Level Pressure 29.91 in    
Wind  
Wind Speed 8 mph (West)    
Max Wind Speed 21 mph    
Max Gust Speed 31 mph    
Visibility 10 miles    
Events      
T = Trace of Precipitation, MM = Missing Value Source: NWS Daily Summary

Daily Weather History Graph

Daily Weather History Graph

Search for Another Location

Airport:

Trip Planner

Search our weather history database for the weather conditions in past years. The results will help you decide how hot, cold, wet, or windy it might be!

Date:

Astronomy

Feb. 05, 2013 Rise Set
Actual Time 6:48 AM EST 4:42 PM EST
Civil Twilight 6:16 AM EST 5:14 PM EST
Nautical Twilight 5:41 AM EST 5:49 PM EST
Astronomical Twilight 5:06 AM EST 6:24 PM EST
Moon 2:32 AM EST (2/5) 11:50 AM EST (2/5)
Length of Visible Light 10h 57m
Length of Day
9h 54m
Waning Crescent, 27% of the Moon is Illuminated
Feb 5
Waning Crescent
Feb 10
New
Feb 17
First Quarter
Feb 25
Full
Mar 4
Last Quarter

Hourly Weather History & Observations

Time (EST) Temp. Windchill Dew Point Humidity Pressure Visibility Wind Dir Wind Speed Gust Speed Precip Events Conditions
12:53 AM 6.1 °F -12.8 °F -9.0 °F 50% 29.68 in 10.0 mi West 17.3 mph 29.9 mph N/A   Clear
1:53 AM 3.9 °F -11.3 °F -9.0 °F 55% 29.72 in 10.0 mi West 10.4 mph 24.2 mph N/A   Clear
2:53 AM 3.0 °F -11.5 °F -11.0 °F 52% 29.74 in 10.0 mi West 9.2 mph - N/A   Clear
3:53 AM 1.9 °F -14.7 °F -13.0 °F 50% 29.77 in 10.0 mi West 11.5 mph 20.7 mph N/A   Clear
4:53 AM 1.0 °F -14.9 °F -14.1 °F 49% 29.81 in 10.0 mi West 10.4 mph 21.9 mph N/A   Clear
5:53 AM -0.9 °F -16.4 °F -15.0 °F 52% 29.83 in 10.0 mi West 9.2 mph 16.1 mph N/A   Clear
6:53 AM -0.9 °F -8.9 °F -16.1 °F 49% 29.86 in 10.0 mi Variable 3.5 mph - N/A   Clear
7:53 AM -0.0 °F -17.1 °F -16.1 °F 47% 29.91 in 10.0 mi West 11.5 mph 17.3 mph N/A   Clear
8:53 AM 1.0 °F -16.6 °F -16.1 °F 45% 29.93 in 10.0 mi West 12.7 mph - N/A   Clear
9:53 AM 3.2 °F -13.9 °F -14.8 °F 43% 29.90 in 10.0 mi West 12.7 mph 18.4 mph N/A   Clear
10:53 AM 5.0 °F -13.0 °F -16.1 °F 37% 29.95 in 10.0 mi WNW 15.0 mph 23.0 mph N/A   Clear
11:53 AM 8.1 °F -8.4 °F -14.1 °F 36% 29.94 in 10.0 mi West 13.8 mph 25.3 mph N/A   Clear
12:53 PM 10.0 °F -5.2 °F -14.1 °F 33% 29.94 in 10.0 mi WSW 12.7 mph 24.2 mph N/A   Clear
1:53 PM 10.0 °F -3.7 °F -14.1 °F 33% 29.95 in 10.0 mi West 10.4 mph 19.6 mph N/A   Clear
2:53 PM 10.9 °F -3.4 °F -14.1 °F 32% 29.96 in 10.0 mi West 11.5 mph - N/A   Clear
3:53 PM 10.9 °F -2.6 °F -13.0 °F 33% 29.97 in 10.0 mi WNW 10.4 mph - N/A   Clear
4:53 PM 8.1 °F -0.5 °F -13.0 °F 38% 29.98 in 10.0 mi WSW 4.6 mph - N/A   Clear
5:53 PM 5.0 °F -5.6 °F -11.0 °F 48% 29.99 in 10.0 mi WNW 5.8 mph - N/A   Clear
6:53 PM 3.0 °F - -9.0 °F 57% 30.01 in 10.0 mi Calm Calm - N/A   Clear
7:53 PM 1.0 °F - -8.0 °F 66% 30.01 in 10.0 mi Calm Calm - N/A   Clear
8:53 PM 3.0 °F - -7.1 °F 63% 30.00 in 10.0 mi Calm Calm - N/A   Clear
9:53 PM 3.0 °F - -5.1 °F 69% 30.00 in 10.0 mi Calm Calm - N/A   Clear
10:53 PM 5.0 °F -2.1 °F -5.1 °F 63% 30.01 in 10.0 mi South 3.5 mph - N/A   Mostly Cloudy
11:53 PM 6.1 °F - -8.0 °F 53% 30.01 in 10.0 mi Calm Calm - N/A   Scattered Clouds